Theta_e
348 348 348 349 351 350 348 345 345 347 349 349 350 351 351 349 345 343 345 351 353 351 351 352 350 346 346 350 351 349 347 349 350 350 349 349 349 350 352 354 353 349 344 341 340 340 341 342 343 344 345 346 347 346 342 341 341 341 341 340 339 338 338 337 337 336 335 335 335 335 338 340 341 341 342 343 344 343 342 341 341 341 341 341 341
348 349 351 352 352 353 350 347 347 349 350 350 350 349 348 347 346 345 346 348 350 349 350 353 352 350 349 350 351 350 349 348 349 349 351 352 352 352 351 352 352 348 346 345 341 341 340 340 340 342 346 346 345 347 345 341 341 340 339 340 339 339 339 338 338 337 335 334 333 333 335 337 339 340 341 341 341 340 340 339 339 339 339 340 339
347 348 350 352 352 352 351 349 350 350 349 349 347 346 345 346 345 345 345 344 344 346 348 351 352 353 352 352 351 350 350 349 349 351 352 355 355 354 352 353 352 350 350 348 342 341 341 341 340 341 346 348 346 347 348 343 340 339 338 338 338 339 340 339 339 338 337 335 333 333 333 334 335 336 337 336 336 335 335 335 335 336 336 337 337
348 349 348 349 350 349 348 347 348 348 348 347 345 345 344 343 343 344 345 342 342 344 347 350 351 353 353 352 351 350 350 348 349 352 352 354 355 354 353 353 353 352 353 352 346 341 339 342 343 342 343 346 348 348 349 347 342 337 336 337 337 338 339 340 340 339 338 337 335 333 332 332 332 332 332 332 332 332 332 332 333 334 334 335 336
350 350 349 348 348 346 345 346 347 347 347 347 347 343 341 341 343 345 346 344 344 344 346 349 350 353 353 351 352 351 351 349 348 350 352 352 352 352 352 352 352 352 353 352 349 344 339 339 343 344 343 343 346 348 349 349 346 338 334 336 337 338 340 340 341 340 339 338 336 334 333 333 332 332 333 333 332 332 332 332 333 334 335 336 336
351 350 350 349 347 347 347 347 347 347 348 348 346 341 339 340 341 343 344 346 348 345 343 344 345 350 351 350 351 351 352 351 349 348 349 351 351 351 351 352 353 352 354 352 351 350 344 340 341 344 345 343 343 346 348 350 348 342 335 334 336 338 339 340 341 341 341 340 338 336 334 333 333 333 333 333 334 334 334 334 335 336 336 337 337
351 351 350 350 349 348 348 346 345 346 346 346 345 342 340 338 338 339 340 344 347 344 340 338 339 346 351 350 350 351 353 352 351 350 348 349 350 350 351 352 353 353 354 354 352 352 349 344 343 343 345 345 343 342 345 348 347 344 338 334 335 336 338 339 341 342 342 340 339 337 336 335 334 334 334 334 335 335 335 334 335 336 336 336 336
354 353 352 352 351 349 347 345 344 343 344 345 345 343 342 339 339 340 340 343 345 343 340 338 338 344 349 349 348 349 352 353 352 351 350 350 350 351 351 352 353 353 352 353 353 352 351 348 346 345 343 345 345 343 342 344 345 344 340 336 334 335 336 338 341 342 342 341 339 338 337 336 336 337 336 336 336 336 335 335 334 334 335 336 336
354 355 354 354 353 351 351 349 346 344 345 347 347 346 344 342 342 341 341 343 343 342 342 342 342 344 345 346 347 348 349 351 351 352 351 351 351 351 351 350 352 353 350 350 352 352 352 351 350 349 346 343 344 344 342 341 341 342 342 339 337 335 335 336 338 340 341 341 340 338 338 337 337 338 338 337 336 336 335 335 335 334 335 334 334
350 352 354 354 353 353 353 352 349 348 349 349 348 346 344 343 343 342 343 344 344 343 343 343 343 342 343 344 345 346 347 349 350 351 351 351 352 351 351 350 350 351 348 348 351 352 352 351 349 351 351 347 343 343 343 342 340 340 341 342 341 338 335 335 335 336 338 340 339 338 338 338 338 338 338 337 336 336 336 335 335 335 334 333 332
345 350 353 354 354 355 354 353 352 351 351 350 348 346 345 344 344 344 345 345 345 345 344 343 342 342 343 344 344 344 345 346 346 348 350 351 353 352 351 349 348 348 348 348 349 349 349 347 347 350 352 352 348 344 342 342 342 341 340 341 342 341 338 336 334 334 335 337 337 337 337 337 338 338 338 337 337 336 336 336 336 335 335 334 334
345 351 355 356 355 355 353 353 353 352 350 349 348 347 346 345 345 345 345 345 345 345 344 343 343 343 343 343 344 344 344 343 343 345 348 350 352 353 353 350 348 348 348 347 345 345 349 349 349 351 350 351 351 348 345 343 343 343 342 340 340 341 340 338 336 334 334 334 335 335 336 336 336 338 338 337 337 338 338 338 337 337 336 336 336
345 349 353 353 352 352 352 353 353 353 351 349 348 347 347 346 346 345 345 345 344 343 344 344 345 345 344 344 344 344 343 343 344 346 347 349 352 354 354 351 349 349 348 347 345 346 348 346 346 348 350 350 351 351 350 346 344 344 343 342 340 340 339 338 337 336 335 334 334 334 335 335 335 336 336 337 338 338 338 338 337 337 337 337 337
347 348 350 349 348 350 351 351 352 352 351 349 348 347 347 346 346 346 345 345 344 344 344 345 345 345 345 345 345 344 343 343 344 346 348 348 351 353 354 353 352 351 349 346 346 347 347 345 345 347 349 349 350 352 352 351 348 346 344 344 343 342 340 339 338 338 337 336 334 334 334 335 335 336 337 337 338 338 338 338 339 339 340 340 340
349 349 349 349 349 350 351 351 351 351 350 349 349 348 347 346 346 346 345 345 344 344 343 344 344 344 344 345 345 345 344 344 342 344 347 349 351 352 352 353 353 354 353 349 346 347 347 348 349 350 350 349 349 351 353 353 351 349 347 345 345 344 344 342 340 338 338 337 336 335 334 335 336 337 337 338 338 338 339 340 341 342 342 342 342
346 346 347 348 349 349 349 349 349 349 350 350 349 348 346 345 345 344 345 345 345 343 342 342 343 344 345 346 345 345 346 345 342 343 347 351 351 351 352 353 352 353 354 351 348 347 347 347 349 350 349 347 348 351 352 354 353 351 349 347 345 345 345 345 343 340 338 338 337 336 335 335 336 337 338 338 338 338 339 340 341 341 341 342 344
343 342 342 342 343 344 344 344 345 345 346 346 346 345 343 343 343 344 343 344 344 343 342 341 342 344 345 345 345 346 347 343 341 342 344 348 350 350 349 350 350 351 351 349 346 346 347 347 347 346 344 344 348 352 352 354 355 354 352 349 347 346 346 346 345 343 341 338 337 335 335 335 336 337 338 338 337 338 339 340 341 341 342 344 344
342 340 339 340 341 342 342 343 344 343 343 343 343 342 341 342 343 343 342 342 343 344 343 341 343 345 343 344 345 346 346 344 343 343 342 341 344 348 349 348 349 348 348 348 346 345 345 345 347 346 346 347 349 348 349 351 353 354 354 352 350 349 348 346 346 345 344 342 339 336 335 334 335 336 337 337 337 338 338 339 341 342 344 345 344
340 340 341 341 342 343 343 344 344 343 343 343 344 343 343 343 343 343 343 344 344 345 345 343 342 345 344 344 345 346 345 345 345 346 346 343 341 344 347 347 347 346 346 346 346 345 343 343 346 347 347 349 350 348 348 350 351 353 353 353 352 351 349 348 347 346 346 346 343 339 337 335 334 335 335 336 336 337 339 340 342 344 345 344 344
340 340 341 341 341 342 343 343 343 342 343 343 344 345 345 344 343 343 343 344 344 345 346 344 343 345 345 344 345 346 345 344 344 345 347 347 345 344 344 343 344 344 344 344 344 345 345 343 344 345 345 347 348 350 350 349 351 352 351 349 350 351 350 350 349 347 346 347 346 343 340 337 335 334 335 335 336 338 340 342 344 345 344 343 344
340 340 340 340 340 340 341 341 341 342 343 343 343 344 344 343 343 344 344 344 343 342 342 341 342 344 345 343 343 344 345 344 343 344 346 347 345 345 344 344 344 345 344 342 341 341 341 339 339 342 344 344 345 347 349 349 350 352 350 348 350 353 353 350 348 348 347 347 347 346 344 340 337 335 335 336 337 339 341 342 344 345 344 343 344
339 339 339 339 339 340 339 339 340 341 342 342 341 341 341 341 341 342 342 343 343 343 342 341 341 343 343 343 343 344 345 345 344 344 344 344 343 344 344 343 344 345 343 342 341 340 339 337 337 338 340 342 344 345 347 349 350 350 351 349 350 352 352 350 348 348 349 348 347 346 345 343 341 339 338 338 339 340 341 343 344 345 344 343 344
339 339 339 339 340 340 339 339 340 340 340 340 340 339 339 338 338 339 339 341 342 343 344 343 342 341 341 341 343 344 344 345 344 344 343 343 343 342 341 340 341 342 342 342 342 342 341 340 339 340 339 340 341 343 344 346 349 350 350 350 350 350 350 351 351 350 348 348 347 347 345 345 344 342 341 340 340 340 340 342 344 345 344 344 344
339 339 339 339 339 339 339 340 340 339 339 339 339 339 339 338 338 338 338 339 340 341 342 341 340 340 340 340 342 343 343 344 343 343 343 343 343 341 339 339 340 341 342 343 343 343 343 342 341 340 340 339 340 341 343 345 346 348 349 349 350 350 349 350 351 351 349 348 349 348 347 345 344 343 342 341 340 339 339 341 342 344 344 343 343
337 338 339 338 338 338 338 339 339 339 338 338 339 339 339 339 339 338 339 339 339 341 341 341 339 338 339 340 341 341 341 341 342 342 342 341 340 340 339 339 341 340 341 342 342 343 343 342 340 340 340 340 340 341 342 344 345 345 347 348 349 350 350 349 350 352 351 349 349 349 348 347 345 343 341 339 338 338 338 339 341 342 342 342 342
336 337 337 337 337 337 338 338 338 338 338 338 339 340 339 338 338 338 339 339 339 339 340 339 338 337 338 339 339 339 338 339 340 339 337 336 336 337 337 338 339 339 340 340 341 343 343 341 340 340 339 340 340 341 341 342 344 345 346 348 348 349 350 349 350 351 352 351 349 350 350 348 346 344 342 339 337 337 337 338 339 339 339 339 340
337 337 336 336 336 336 336 336 336 336 337 337 338 339 338 338 338 338 338 339 340 339 337 336 336 336 336 337 337 336 337 337 336 336 336 336 335 335 335 336 338 339 339 338 339 341 342 341 340 339 338 337 340 342 343 343 344 345 345 347 346 346 347 348 349 351 352 352 350 350 350 349 347 346 343 341 339 338 337 337 337 337 337 337 338
337 336 335 335 335 335 335 335 335 336 336 337 338 338 338 337 338 337 338 339 339 338 336 334 334 335 335 336 335 334 335 334 333 334 336 337 336 335 334 335 336 338 338 339 339 340 340 339 339 338 337 336 338 342 344 344 344 343 343 344 344 344 347 349 349 350 350 350 351 351 350 349 348 346 344 343 341 340 339 338 338 337 337 337 336
335 335 334 334 334 334 334 334 335 335 336 337 337 338 337 337 337 337 337 338 337 336 334 333 334 334 335 334 334 332 332 331 330 332 334 335 336 336 336 334 335 336 338 339 339 338 337 338 338 337 336 335 335 337 339 340 341 342 342 342 343 343 346 348 349 349 348 348 349 351 351 347 343 342 342 342 342 342 341 340 340 339 339 339 338
335 334 334 334 334 334 334 334 334 334 335 336 336 336 336 336 335 336 336 337 336 336 335 335 335 335 335 333 332 331 330 329 330 331 332 333 333 334 334 334 335 335 336 338 338 337 337 337 337 337 336 335 334 334 334 334 337 341 343 343 343 343 343 345 347 347 347 347 347 349 351 344 338 338 340 340 341 342 342 341 342 341 341 341 340
335 335 335 334 334 334 334 334 334 334 334 335 336 336 336 336 336 336 337 336 336 337 336 336 336 335 334 332 332 330 329 330 331 330 330 331 332 332 333 333 334 334 335 336 337 338 337 338 338 337 337 336 335 335 334 333 335 339 341 342 342 343 342 342 344 346 347 346 346 348 349 344 340 341 341 341 341 341 342 342 342 342 343 342 341
335 335 335 334 334 334 334 334 334 333 333 334 334 335 336 336 337 337 337 336 335 336 337 336 336 334 333 332 331 330 330 331 330 330 330 330 330 331 331 331 332 333 334 335 336 336 336 336 337 337 337 337 336 336 336 335 336 338 340 341 341 342 341 341 344 346 347 347 347 348 349 348 346 345 343 342 341 341 341 341 342 342 343 342 342
335 335 335 335 334 334 334 334 334 334 334 333 333 333 334 335 336 335 336 335 334 335 337 337 336 334 333 331 331 331 331 330 329 329 329 329 329 328 328 328 329 331 332 333 335 336 336 336 337 338 338 338 338 338 338 338 338 340 342 343 342 340 339 341 345 348 348 347 347 348 349 350 349 346 343 342 341 339 341 342 343 344 344 343 341
336 335 335 334 334 334 334 333 334 334 334 334 334 333 333 334 335 334 334 334 334 335 336 336 335 333 332 331 331 331 330 329 328 328 327 327 327 326 326 326 327 328 329 331 333 334 336 337 337 338 339 340 340 340 340 340 340 341 343 344 342 340 339 340 343 346 348 348 348 348 348 349 349 346 345 345 342 339 341 344 345 345 344 343 340
334 334 333 333 332 333 333 333 334 334 334 334 334 333 333 334 335 335 334 334 334 335 336 335 334 332 331 331 330 330 329 328 328 326 325 325 325 326 325 326 326 326 326 328 331 333 335 337 337 338 339 341 342 342 341 341 341 342 343 345 343 342 341 339 339 345 349 349 348 348 348 349 348 347 348 349 344 340 342 344 345 344 343 341 339
330 330 331 332 331 331 332 332 332 333 333 334 333 333 333 332 332 333 334 335 335 335 335 334 333 332 331 331 330 329 329 328 327 325 324 325 325 326 325 325 326 326 326 327 328 330 332 335 337 338 338 339 341 343 343 344 344 344 344 345 345 345 343 339 339 345 349 349 349 349 349 350 349 349 351 351 346 342 343 344 343 342 341 340 339
330 331 332 331 330 330 330 330 331 331 331 332 332 334 334 332 329 327 329 332 334 334 334 335 334 331 331 330 329 329 329 328 327 325 324 325 325 325 325 325 325 325 325 325 326 327 329 332 335 337 338 338 340 342 342 344 345 344 344 345 345 346 344 339 338 344 348 349 350 350 351 353 352 353 353 352 346 343 343 344 343 342 341 341 341
330 331 330 329 329 329 329 329 329 330 330 330 332 334 335 335 332 328 327 330 333 334 333 334 333 332 331 330 330 330 329 329 328 326 324 324 325 325 325 325 325 325 324 324 324 325 326 329 333 336 338 338 339 341 341 343 345 344 343 344 344 343 342 339 339 344 347 349 350 351 353 354 354 355 355 352 346 343 344 344 343 343 342 342 342
331 331 330 330 330 329 329 329 329 329 329 330 332 335 337 337 335 332 331 331 333 334 333 333 333 332 330 330 330 329 329 328 327 324 323 324 324 325 325 325 324 324 324 324 324 324 325 328 331 335 338 337 338 339 340 342 345 345 344 345 344 342 341 340 342 344 346 346 348 350 352 353 354 354 353 351 347 344 344 344 343 343 342 342 342
334 333 332 330 329 329 328 328 329 328 329 331 334 337 337 335 333 332 332 331 332 333 334 333 333 332 331 330 330 329 329 328 325 323 323 323 324 325 325 325 325 324 324 324 324 324 325 327 329 333 336 337 338 339 340 343 346 346 344 345 346 345 344 344 343 343 344 344 346 349 350 353 355 353 352 352 349 346 345 345 344 344 344 344 344
335 334 333 331 330 329 328 329 328 328 330 333 334 334 334 332 331 333 333 331 331 333 333 333 332 331 330 330 330 330 329 327 325 324 324 324 324 325 325 326 325 325 325 324 324 324 325 326 328 330 333 336 338 338 339 342 346 347 345 344 346 346 347 347 346 345 345 345 347 349 351 353 354 353 352 352 350 348 347 347 346 346 346 345 345
336 335 332 331 330 329 329 329 328 329 331 331 331 331 331 330 329 331 332 330 329 330 330 331 330 329 329 329 329 329 329 328 327 326 325 324 325 325 326 327 326 326 325 324 324 324 325 326 327 329 332 335 336 337 337 339 343 346 345 345 346 346 347 348 349 349 349 349 349 350 352 353 354 353 353 353 350 349 349 349 348 347 347 346 346
336 334 332 331 330 329 328 328 328 330 330 330 328 328 329 330 328 328 327 327 326 326 326 327 328 328 329 328 329 329 329 328 328 326 325 325 326 327 328 327 325 325 325 325 324 324 324 325 325 327 329 332 333 335 337 338 340 344 345 345 346 346 345 346 347 349 350 352 351 350 350 351 352 352 354 354 352 351 350 350 349 348 348 347 346
335 333 331 330 328 327 327 328 329 331 330 329 328 326 327 330 330 328 326 326 326 326 325 326 325 326 329 330 330 329 328 327 327 326 326 326 328 329 327 325 324 324 324 324 324 324 324 324 325 326 327 330 331 333 336 338 339 342 342 341 343 345 344 345 346 348 349 350 352 350 349 350 351 351 353 354 354 354 353 352 351 350 348 346 345
334 332 329 328 328 327 327 329 330 330 329 328 328 327 327 328 328 328 327 327 328 329 329 327 324 326 330 332 331 329 328 328 327 327 327 327 329 329 326 323 324 324 323 323 323 323 323 323 324 325 326 328 330 331 334 336 338 341 341 340 343 345 344 344 346 347 346 347 351 352 352 352 352 351 352 353 354 354 353 352 350 350 348 346 342
332 330 328 328 327 326 328 330 330 329 329 328 327 327 327 327 327 327 327 327 328 331 331 329 327 328 330 332 331 329 330 331 329 328 328 329 330 329 325 323 324 323 322 323 323 322 323 323 324 325 325 327 328 329 331 334 336 339 340 341 343 345 343 342 344 345 346 347 349 351 352 353 353 352 351 352 353 353 353 351 348 347 348 345 342
331 329 327 327 327 327 328 329 329 330 329 328 328 329 328 327 326 326 327 327 328 329 329 328 328 328 327 328 329 329 329 330 329 328 329 329 330 329 326 323 323 323 323 323 323 323 323 322 322 323 324 325 326 327 329 332 334 337 339 339 342 344 342 342 343 343 346 347 345 347 348 350 353 354 352 351 351 352 352 351 348 346 345 345 344
331 329 327 327 327 327 327 327 329 331 330 329 329 328 327 327 325 324 325 327 327 328 328 327 326 325 324 326 328 329 328 326 328 330 330 329 330 329 325 323 323 323 323 322 322 322 323 322 322 322 322 322 323 324 325 328 331 333 336 339 341 341 341 344 344 343 344 345 341 343 346 348 350 353 353 351 350 350 351 352 350 346 346 348 349
332 330 328 327 327 327 327 327 329 331 330 329 328 327 327 327 325 323 324 325 327 328 328 327 325 323 323 326 328 328 327 326 328 329 328 329 328 326 323 322 323 323 322 321 321 322 322 322 322 322 323 323 323 323 323 324 326 328 333 338 340 340 342 346 347 344 342 343 341 342 345 347 348 351 352 351 349 349 351 352 351 348 348 350 352
332 331 329 328 327 327 327 326 328 329 328 327 327 327 327 326 324 324 325 327 329 328 327 326 325 322 323 326 327 328 327 328 328 327 327 327 326 323 322 322 323 323 322 320 320 321 322 322 322 323 325 326 325 324 324 325 325 326 329 335 339 340 342 345 344 342 341 341 340 343 346 346 347 349 350 350 349 349 352 354 354 351 351 352 353
330 329 329 328 327 328 327 326 326 326 326 327 327 327 327 326 325 325 327 329 330 328 326 326 325 324 323 325 327 327 327 328 328 329 328 325 323 321 322 323 323 322 321 320 321 322 322 323 323 323 326 330 329 327 326 326 326 326 328 332 337 339 342 343 341 342 344 343 339 341 346 346 346 347 349 349 349 349 351 354 354 354 353 354 354
Wind_Speed
10 10 7 6 6 5 4 4 3 2 1 3 5 6 9 12 12 12 13 11 9 8 8 10 10 8 8 7 6 6 6 8 8 8 11 14 12 7 9 13 13 12 12 13 14 14 15 16 16 16 17 18 19 19 19 19 18 18 18 17 16 16 15 15 14 14 13 13 14 14 13 13 12 11 11 10 10 9 9 8 8 7 7 7 7
13 13 11 10 10 9 9 8 5 3 3 3 5 7 9 11 13 14 14 14 13 14 13 11 10 9 9 7 5 6 7 8 9 8 9 12 13 11 11 12 14 15 15 15 15 15 16 16 16 16 18 19 20 20 20 20 19 19 19 18 18 17 17 16 16 15 15 14 14 14 14 14 13 12 12 11 11 10 9 9 8 8 8 8 8
14 15 14 14 13 13 13 10 7 6 6 6 7 8 8 11 14 16 17 18 17 16 15 13 13 11 9 8 7 7 8 9 10 10 9 10 14 15 14 13 13 16 17 18 17 17 18 18 17 17 18 20 21 21 22 21 21 20 20 20 19 18 18 18 17 16 16 15 15 15 15 15 14 14 13 12 12 11 10 10 10 10 9 9 9
15 15 15 16 16 16 15 13 10 9 9 9 9 10 11 13 16 17 19 21 19 17 15 13 13 11 9 10 11 11 10 10 11 12 12 13 15 16 15 14 14 16 19 20 19 19 19 20 20 19 19 20 21 22 23 23 22 22 21 21 20 20 20 19 18 18 17 17 16 16 15 15 15 15 14 13 13 12 11 11 11 11 10 10 10
16 16 16 16 16 17 17 16 13 12 12 12 11 12 15 16 15 15 18 20 20 18 15 14 13 12 12 11 12 14 13 13 12 13 15 16 17 17 17 15 16 17 21 23 22 21 21 21 22 21 21 21 21 22 24 25 24 24 23 23 22 22 21 20 20 19 19 19 18 17 16 16 16 15 15 14 13 13 12 12 11 11 11 11 11
15 16 17 16 16 16 14 14 14 14 14 13 14 16 18 17 15 15 17 17 17 17 17 18 17 14 14 12 12 14 14 15 16 14 15 18 19 19 19 17 17 19 21 23 23 23 22 22 23 23 23 23 22 23 25 26 26 26 25 24 24 23 22 22 21 21 21 20 19 18 18 17 17 16 16 15 15 14 13 13 12 12 12 11 11
15 16 16 15 14 12 10 9 10 14 15 13 15 18 20 20 18 17 17 16 17 18 20 21 20 17 15 14 13 13 13 14 16 17 16 17 19 20 21 20 20 20 21 22 23 24 24 24 24 24 25 25 25 24 25 26 27 27 27 26 25 25 24 23 23 23 22 22 21 20 19 18 18 18 17 16 16 15 15 14 14 13 13 12 12
14 15 14 13 13 13 12 9 10 14 16 14 15 17 19 20 20 19 16 14 16 18 19 19 19 17 15 16 16 15 15 14 15 16 16 16 18 20 21 22 23 22 22 22 21 23 25 25 26 25 25 26 27 27 26 26 27 28 28 28 27 27 26 25 25 24 24 23 23 22 21 20 19 19 18 17 17 16 16 15 15 15 14 14 13
13 14 14 14 14 15 15 13 14 16 15 13 13 14 15 18 21 18 13 12 15 16 16 15 15 15 16 17 16 15 16 16 16 16 16 17 19 21 22 23 25 24 23 23 21 22 23 24 25 26 26 26 27 29 28 28 28 28 29 29 29 29 28 27 26 26 25 25 24 23 23 22 21 20 20 19 18 18 17 17 17 16 16 15 15
14 13 14 15 15 14 12 12 13 13 12 12 14 13 14 16 18 15 11 12 14 14 13 14 15 17 18 18 17 17 17 17 17 17 18 19 21 23 25 25 25 27 28 25 23 22 23 23 23 26 28 27 27 28 29 30 30 30 30 30 31 31 30 29 28 27 27 26 26 25 24 24 23 22 22 21 21 20 19 18 18 17 17 17 17
15 14 15 15 14 11 7 8 10 9 10 11 11 12 14 14 14 13 12 13 14 14 15 16 17 18 18 19 19 20 20 20 21 21 21 21 22 25 27 27 26 28 28 26 25 25 26 26 24 25 27 28 29 28 29 30 31 31 31 31 32 32 31 31 30 29 28 28 27 27 26 25 25 24 24 23 22 22 21 20 19 18 17 17 17
15 14 13 12 11 10 8 9 9 10 11 11 12 14 14 14 13 13 14 14 14 16 17 16 16 17 20 22 23 23 23 23 24 24 23 22 22 23 26 28 27 27 27 27 29 28 27 26 24 25 26 28 30 30 30 30 31 32 33 33 33 33 33 33 32 31 30 30 29 28 28 27 27 26 25 25 24 23 22 21 20 19 18 17 17
15 15 15 14 13 12 11 11 11 11 13 13 14 14 13 14 14 13 13 13 14 15 15 14 14 15 17 20 23 23 22 23 25 25 25 23 22 23 24 27 27 27 27 28 30 31 30 28 27 28 27 27 29 31 32 31 32 33 34 35 35 36 35 35 34 33 32 32 31 30 29 29 28 28 27 26 25 24 23 22 20 20 19 18 18
14 14 15 15 14 13 13 13 14 14 14 14 14 13 13 14 14 13 13 14 15 15 14 13 12 12 12 12 15 18 20 22 24 25 25 24 23 24 24 25 26 25 27 30 31 32 32 31 30 29 28 28 29 31 33 33 34 34 35 36 36 37 37 36 36 35 34 33 33 32 31 30 29 28 28 27 26 24 23 22 21 20 20 19 19
13 14 14 13 12 13 13 15 16 16 16 16 15 15 15 15 15 16 16 16 16 16 14 13 13 12 11 8 6 9 11 14 19 23 24 24 23 25 26 26 26 23 23 27 29 29 29 29 28 28 28 28 29 31 33 34 35 35 35 36 37 38 38 38 38 37 37 35 34 33 32 31 30 29 28 28 27 25 24 23 22 22 21 21 21
12 12 12 13 13 13 15 16 18 18 17 16 15 15 16 17 18 17 17 16 15 15 14 14 14 11 7 5 5 6 5 6 11 15 17 20 23 25 26 28 28 26 23 24 26 27 27 28 25 24 26 28 29 30 32 34 34 35 35 36 37 38 39 39 39 38 38 38 36 35 34 32 31 30 29 28 28 26 25 25 24 23 23 23 23
10 11 11 13 13 14 15 17 18 18 17 16 15 16 18 19 19 17 17 18 17 16 15 14 14 14 10 6 5 4 3 6 10 10 11 14 18 22 25 26 28 29 27 27 28 28 27 29 29 29 30 30 31 32 32 33 33 33 35 36 37 38 39 40 40 39 39 38 38 37 36 34 33 32 31 30 29 28 27 26 25 25 24 24 23
9 11 11 11 12 13 15 16 17 17 16 16 16 18 20 21 19 18 20 20 17 15 15 15 14 15 16 14 13 10 6 7 7 6 12 17 16 16 19 22 23 25 25 25 26 26 26 26 25 28 30 31 33 33 33 35 34 34 35 35 36 37 38 39 39 40 39 39 38 38 37 36 35 33 32 31 30 29 29 28 27 26 25 25 24
8 9 9 9 11 12 13 14 15 15 14 15 16 17 19 18 16 16 16 15 13 13 14 16 15 14 16 16 17 17 12 8 6 4 8 13 16 15 16 19 19 20 22 22 23 26 28 26 22 22 25 27 30 32 33 34 35 36 35 35 36 36 37 38 39 40 40 39 39 38 38 37 36 35 34 33 32 31 30 29 28 26 26 25 24
7 8 8 8 10 11 12 12 13 14 14 13 14 14 15 14 12 12 11 9 10 12 13 15 15 14 14 12 12 12 11 11 11 9 6 6 11 14 17 18 16 17 19 20 23 24 25 27 26 24 25 25 27 30 33 35 35 35 36 36 36 35 35 35 37 38 39 40 40 39 39 38 37 36 35 34 33 32 31 30 29 27 26 26 25
7 7 7 8 9 10 11 12 13 13 13 12 12 13 12 10 10 10 9 10 11 12 14 15 16 16 14 13 13 11 11 12 12 11 7 6 7 8 11 14 13 15 17 18 21 23 24 26 27 28 29 29 29 29 32 36 37 36 36 36 35 35 35 35 35 36 37 39 41 41 40 39 38 37 36 35 34 33 32 31 30 28 28 27 26
7 7 7 8 9 9 10 12 13 13 13 13 12 12 11 9 9 9 10 12 13 13 14 15 15 16 15 14 14 13 10 8 8 8 7 6 6 6 8 10 11 15 18 18 18 19 22 26 27 28 30 31 33 33 32 34 37 37 36 36 36 35 34 34 34 34 34 36 39 40 40 40 39 38 37 36 35 34 32 32 31 30 29 28 27
6 6 7 7 7 8 9 10 11 12 12 12 12 11 11 10 10 10 11 12 12 12 12 12 13 13 13 13 14 13 11 8 8 9 7 5 5 6 8 12 14 18 22 22 21 21 23 26 26 27 29 31 34 34 33 32 32 35 37 36 36 36 34 34 34 34 34 35 36 38 39 40 40 39 38 37 36 35 33 32 32 32 31 30 29
6 6 6 6 7 8 8 9 9 10 10 11 11 11 11 11 11 11 12 12 11 11 11 11 12 13 13 14 14 15 15 13 13 13 11 9 8 5 7 13 14 18 23 24 25 25 23 24 25 27 29 32 34 33 33 34 32 31 35 36 35 36 35 35 36 36 37 36 36 36 37 38 39 39 38 37 37 36 34 33 33 33 32 31 30
6 6 6 7 8 9 9 9 9 10 10 10 10 10 10 10 10 11 11 12 11 10 10 10 12 13 14 13 14 16 17 17 16 16 14 13 11 7 9 12 11 15 22 22 23 24 23 24 26 27 29 31 33 33 34 37 36 32 30 30 33 35 35 35 35 37 38 38 38 38 37 36 36 37 37 36 36 36 35 34 34 33 33 32 31
7 6 7 8 9 9 9 10 10 10 10 11 11 10 10 10 10 11 11 12 11 9 9 10 11 13 13 12 14 15 17 18 18 18 19 18 16 13 12 13 13 16 19 21 22 21 21 24 24 23 25 29 31 32 33 36 38 37 32 27 28 30 32 33 35 37 38 39 40 39 38 37 36 35 36 35 35 35 35 35 34 34 34 33 32
7 7 8 8 8 9 10 10 11 11 11 12 12 11 11 11 11 11 11 11 10 8 8 9 11 12 12 12 14 16 17 17 19 22 22 19 18 19 14 10 11 13 12 15 19 19 21 24 22 22 24 27 29 29 32 34 35 38 38 34 32 31 31 32 33 36 38 40 40 40 38 37 36 36 35 35 35 35 35 35 35 34 34 33 33
7 8 8 8 8 9 10 10 11 12 13 13 13 13 12 12 12 11 11 10 9 8 8 10 12 13 13 12 13 15 16 18 21 22 21 19 21 23 19 12 10 9 9 10 11 14 21 23 21 23 23 24 26 26 28 32 33 36 37 37 35 33 34 37 36 35 36 39 41 40 38 36 34 34 35 35 36 36 36 35 35 35 34 34 34
7 8 8 9 9 10 10 11 11 12 13 14 13 13 12 13 12 12 12 10 8 9 10 11 13 13 13 13 13 15 17 20 22 21 20 21 22 24 22 18 14 9 8 10 8 10 17 20 20 21 22 23 26 26 27 30 34 35 35 36 34 30 32 37 38 36 35 38 42 41 38 35 33 33 34 35 36 36 36 36 36 36 35 35 35
7 8 10 10 10 11 11 11 12 13 14 14 13 13 13 12 12 12 12 10 8 9 10 11 12 12 12 12 13 16 18 19 21 21 21 23 23 23 23 22 20 14 10 9 10 13 17 19 22 23 22 25 28 28 29 31 33 34 35 38 37 34 32 31 34 37 35 35 41 43 40 36 33 33 34 35 36 37 37 36 36 37 37 36 36
8 8 10 11 11 12 12 12 13 13 14 14 13 14 14 13 12 12 11 9 9 9 10 9 10 10 10 11 12 16 17 18 19 22 25 25 25 25 25 24 23 21 18 13 10 15 19 19 23 27 25 25 28 29 30 32 32 33 35 35 35 36 35 31 33 38 35 32 35 41 43 38 35 35 34 35 37 38 38 37 36 36 37 37 37
8 9 10 11 12 12 13 14 14 14 15 15 15 15 14 13 13 12 11 10 10 10 10 9 9 9 9 10 12 14 15 17 19 21 24 25 25 25 25 26 25 23 23 19 12 16 24 24 25 31 31 28 29 30 31 32 31 31 31 30 29 32 34 33 35 37 36 33 32 36 42 41 37 35 35 35 37 37 37 37 36 36 36 37 38
10 10 11 11 13 13 14 15 16 16 16 17 17 17 16 15 14 13 13 12 11 12 10 8 7 7 7 9 12 12 13 16 18 19 20 22 24 24 25 25 24 23 24 23 16 15 23 25 24 29 31 29 28 29 31 32 31 30 30 28 29 31 31 32 34 36 38 37 35 36 40 42 40 37 35 35 36 36 36 36 36 36 36 37 38
11 11 12 12 12 13 15 16 17 17 18 19 18 18 18 17 14 14 14 13 12 12 11 9 7 6 7 9 10 11 12 13 15 17 19 20 21 23 24 22 23 24 24 25 22 18 19 23 23 25 27 27 28 29 31 33 33 33 33 31 30 29 27 28 32 35 38 39 39 38 38 41 41 38 35 34 34 35 35 35 35 35 36 37 38
11 12 12 13 13 14 16 17 18 18 18 17 17 18 17 15 13 14 15 14 13 13 12 10 8 7 7 7 8 9 9 11 13 16 19 20 19 20 22 23 23 25 25 24 24 22 21 23 24 23 23 24 26 29 31 33 34 35 35 34 32 30 29 30 31 32 36 38 40 39 37 39 41 39 36 34 34 35 35 34 34 33 34 36 37
10 12 14 15 15 15 16 17 18 18 18 17 18 18 17 16 15 15 15 15 14 14 15 13 9 8 7 7 8 8 9 10 13 16 19 20 19 18 20 24 25 26 26 25 25 26 25 24 24 25 25 23 25 28 29 29 31 34 35 34 32 30 32 32 30 30 33 35 36 36 35 37 39 38 36 35 34 35 35 34 33 32 33 35 36
12 13 14 15 15 17 18 18 18 18 19 20 20 18 19 21 20 18 17 16 16 16 17 15 12 10 8 8 9 9 10 11 14 17 19 20 19 19 21 24 25 26 27 28 27 27 26 25 26 28 28 25 26 29 28 27 27 28 31 32 30 28 30 31 31 30 31 31 33 34 33 34 37 37 37 36 35 35 36 35 34 33 34 35 36
11 11 13 15 16 17 18 18 19 18 18 20 21 20 21 20 19 19 19 18 17 18 19 18 15 13 11 11 11 11 11 12 14 16 19 19 19 20 21 22 24 27 28 29 28 27 26 27 28 29 29 25 25 28 28 27 26 25 26 27 27 28 29 30 32 31 29 28 31 32 32 33 36 36 36 35 35 36 37 36 35 35 35 36 36
10 12 14 16 16 15 16 18 18 17 18 21 22 20 17 15 15 17 18 19 20 21 22 21 17 16 16 15 14 13 11 11 13 15 16 18 18 19 20 21 24 26 27 27 28 27 25 25 26 26 27 26 26 27 28 27 26 27 26 22 21 26 31 34 35 32 29 29 31 33 34 33 34 35 35 35 35 35 36 36 36 36 35 35 35
11 13 14 14 14 15 17 18 17 18 21 20 17 14 12 12 14 16 17 18 21 24 24 21 18 18 19 19 17 15 13 12 13 13 14 16 17 19 20 22 25 26 26 27 26 25 24 23 24 24 24 25 25 26 28 25 21 22 26 23 21 26 32 36 38 35 33 33 34 35 36 34 33 33 33 33 34 33 33 33 34 34 34 33 33
12 14 14 13 14 16 17 17 18 19 17 11 9 11 12 12 13 16 17 16 20 23 22 20 20 22 23 22 20 19 17 16 15 14 15 15 16 18 20 23 25 26 26 26 25 24 23 22 22 23 22 21 21 22 24 23 20 20 25 27 25 27 30 33 37 38 36 36 36 35 35 35 34 33 34 34 33 32 31 32 32 33 33 32 32
12 13 13 13 13 14 15 16 17 14 10 8 10 11 10 11 11 12 14 15 17 19 21 21 23 24 23 23 24 24 22 19 16 16 17 18 17 17 19 23 27 28 27 26 25 24 23 21 21 21 19 19 20 20 22 25 23 22 25 26 25 25 25 23 27 32 35 35 35 34 34 35 34 32 33 34 33 31 30 31 33 33 33 32 32
12 13 14 14 13 12 13 15 15 11 10 12 11 9 9 10 10 9 11 14 16 18 20 22 23 25 26 26 25 22 18 18 17 17 18 19 17 16 19 26 30 30 29 28 27 27 25 23 23 22 19 19 23 23 22 25 26 24 24 24 23 23 19 13 14 20 29 33 34 33 33 34 35 33 31 31 32 31 31 32 33 33 33 32 31
12 12 14 14 13 12 13 15 14 12 14 15 12 10 10 10 9 10 13 16 17 18 19 21 24 27 28 24 19 17 18 20 22 22 22 19 16 17 23 29 31 30 31 31 30 29 28 26 25 25 23 22 25 25 23 24 26 24 21 21 22 22 20 18 16 17 24 32 32 29 29 32 34 35 33 32 33 32 33 34 33 33 32 31 29
12 13 15 14 13 13 14 15 14 15 16 15 12 11 11 10 10 12 15 18 19 20 21 22 24 26 24 20 18 21 24 25 24 24 24 20 18 20 27 31 30 30 33 34 31 30 31 29 27 27 26 25 25 26 25 24 25 23 18 20 24 23 21 22 23 22 25 30 30 25 23 29 34 36 36 36 35 34 33 34 33 32 31 30 29
14 15 16 14 13 14 14 15 16 16 15 13 12 12 12 11 12 13 15 18 20 21 22 23 24 24 24 22 22 22 22 22 22 23 22 21 22 24 28 30 31 32 33 32 32 32 31 30 29 30 31 30 29 29 30 28 27 26 21 19 22 23 21 22 25 21 17 23 30 22 14 23 33 35 35 36 36 34 34 33 33 32 32 31 30
16 16 15 13 14 15 15 14 15 14 12 11 12 13 13 13 14 15 16 17 19 20 21 21 22 24 26 26 23 19 18 19 20 19 18 21 23 24 26 30 32 34 34 32 32 34 35 34 33 35 35 33 32 33 32 30 29 29 26 24 22 21 22 24 24 18 9 14 26 20 11 17 29 32 33 35 35 33 34 34 33 32 31 31 30
18 19 17 15 16 17 15 14 13 11 9 11 13 14 13 14 17 17 17 18 19 20 19 19 21 23 25 24 19 15 15 17 17 15 15 19 21 21 25 31 33 33 34 34 35 36 39 39 39 41 41 40 39 39 39 37 33 30 27 26 24 20 18 17 18 19 15 14 22 24 17 17 24 29 30 32 32 32 34 36 35 33 30 30 29
21 22 18 17 17 15 13 13 12 11 10 13 15 15 14 15 16 15 15 17 18 18 18 18 19 21 23 22 18 15 14 13 13 14 15 18 20 20 25 30 31 32 34 38 41 42 42 42 43 44 44 44 42 43 45 44 41 35 27 22 21 21 17 10 7 13 17 17 22 27 23 18 19 24 27 28 30 33 34 36 37 35 32 31 31
22 20 17 17 17 12 10 13 13 13 14 14 15 15 16 17 16 14 14 14 15 16 17 16 17 21 22 20 15 14 13 11 11 15 16 16 17 19 23 27 28 30 34 41 47 49 48 47 46 45 40 35 35 39 42 43 42 40 33 25 22 21 16 11 8 9 13 18 23 25 21 17 18 22 23 21 22 29 32 32 34 36 35 33 32
20 19 18 18 16 12 11 12 14 14 13 11 12 15 18 18 16 13 13 13 14 16 16 15 17 20 20 17 12 10 11 11 13 16 15 13 14 18 22 25 25 28 36 43 47 49 48 47 47 46 39 26 26 30 35 38 40 41 38 31 27 23 16 14 14 11 8 14 23 25 21 18 20 22 20 14 10 17 22 24 28 33 35 34 33
Wind_Direction
247 252 247 234 236 241 244 284 329 352 294 305 307 306 311 308 303 301 301 305 303 298 296 292 304 316 309 299 282 278 256 243 253 266 275 273 269 255 222 215 225 232 226 218 213 211 213 217 222 219 212 211 213 215 216 213 207 203 203 206 210 212 213 213 213 214 216 220 222 223 225 228 228 226 224 225 228 231 235 240 246 254 258 261 267
248 253 256 256 257 267 284 298 299 291 286 292 298 297 304 306 301 299 296 295 298 301 303 297 302 306 297 287 255 252 251 242 247 256 263 265 267 261 246 234 229 233 233 229 224 220 219 220 223 224 219 216 214 216 218 217 214 211 207 206 210 212 214 216 215 215 217 220 222 224 226 229 232 231 229 229 231 234 239 246 250 255 259 261 264
256 258 258 260 264 272 282 285 283 285 277 278 293 292 294 298 298 295 291 292 292 297 301 299 305 307 289 277 267 258 253 246 245 248 243 244 257 260 254 245 230 225 229 235 234 229 225 223 223 223 222 221 217 216 217 219 218 217 214 210 210 212 215 217 218 218 219 221 222 225 227 230 233 234 235 235 236 239 243 248 250 253 255 258 262
264 266 265 264 265 270 277 276 276 279 274 278 288 295 301 303 304 300 297 299 296 295 298 295 299 294 272 269 276 278 271 261 250 244 240 238 248 257 258 249 234 224 223 232 238 236 231 227 226 223 222 223 220 218 218 219 219 220 220 217 214 214 215 217 219 220 221 222 223 225 227 230 234 235 237 239 240 241 243 246 247 249 251 253 256
269 272 273 270 268 271 275 274 278 278 274 279 285 298 309 309 309 304 302 304 300 299 299 295 292 278 267 268 272 277 276 274 271 255 244 244 248 254 260 253 241 231 223 225 232 237 235 230 228 228 225 223 222 220 220 220 220 221 222 222 219 216 216 218 220 221 223 224 224 226 229 230 233 234 235 237 240 241 242 243 243 245 247 249 251
267 268 268 267 269 274 277 278 284 283 276 280 290 301 307 305 304 302 301 299 295 298 298 295 293 280 273 274 272 275 273 275 280 271 251 245 246 249 255 251 241 233 226 224 225 230 236 234 230 231 229 226 223 222 222 223 223 222 222 223 224 221 219 220 221 222 223 225 226 227 230 231 232 234 236 237 238 239 240 240 241 244 246 249 251
265 266 268 268 268 268 268 270 276 281 279 277 283 293 296 297 299 302 304 295 289 297 299 295 293 286 279 279 279 276 271 271 274 277 269 251 243 242 243 242 236 231 227 225 223 225 230 234 233 231 232 230 227 224 223 224 226 225 224 223 225 225 224 223 223 224 225 227 228 229 231 232 234 235 237 237 236 237 238 239 241 243 247 250 251
273 277 279 274 270 267 264 261 263 273 275 273 279 288 294 298 301 304 305 296 291 302 305 298 291 288 283 282 284 277 269 269 267 271 275 260 246 239 235 236 235 233 231 227 224 224 225 230 234 233 233 232 230 228 225 224 227 228 228 226 225 225 226 226 225 225 226 228 230 231 232 234 235 236 237 238 238 239 239 241 243 245 246 249 251
281 283 282 277 278 282 282 279 272 266 265 273 285 290 294 302 307 307 300 288 291 301 305 302 293 288 287 286 284 278 271 271 268 264 264 258 248 239 232 234 235 234 235 233 226 225 225 225 230 234 235 234 232 230 228 226 226 228 230 230 228 226 226 227 227 228 228 229 231 232 234 235 236 236 238 239 240 241 242 243 246 248 248 250 252
284 285 287 290 295 298 294 277 264 255 257 277 288 290 294 302 310 309 294 284 288 292 292 293 293 291 290 287 282 277 273 270 270 265 260 254 249 244 237 233 235 237 238 235 227 225 228 228 229 232 234 234 234 232 230 229 228 228 229 231 230 229 228 227 228 229 230 231 233 234 235 236 236 237 239 240 242 242 243 245 246 248 250 252 254
292 292 291 295 296 295 286 257 253 260 269 277 280 287 296 300 301 299 291 286 284 282 284 284 286 285 283 283 281 276 274 273 272 266 260 253 249 250 244 235 236 239 235 230 228 230 233 235 232 228 229 233 234 233 232 231 230 229 229 230 231 231 230 229 229 228 229 231 233 235 236 236 236 237 239 241 243 243 244 245 246 247 248 251 254
291 289 285 284 282 278 270 256 261 271 270 268 272 280 286 286 285 286 288 286 283 281 281 281 280 280 279 279 278 278 280 280 274 267 260 253 247 248 247 239 234 233 232 234 236 233 231 234 232 228 229 232 232 233 234 233 231 230 230 230 231 231 231 230 230 229 228 230 232 234 235 236 237 237 239 242 243 243 244 245 245 246 246 248 251
281 281 275 272 274 275 271 267 267 266 267 271 278 280 278 279 281 283 282 280 281 281 278 277 276 277 279 278 278 280 282 277 270 265 260 255 245 243 245 238 232 230 232 237 238 232 232 236 234 233 233 231 231 231 235 236 234 231 229 229 230 231 232 231 231 231 230 230 230 232 233 235 236 238 240 243 243 243 244 244 244 244 245 246 248
279 282 278 274 275 273 271 272 270 265 265 269 273 276 277 279 278 278 278 274 274 276 275 273 269 272 279 282 283 282 278 271 264 258 255 254 244 239 241 237 233 233 230 231 234 233 234 236 234 233 234 233 231 230 233 236 235 233 230 229 229 230 232 232 232 231 232 232 231 231 232 234 236 238 240 241 242 242 243 244 244 245 246 247 248
285 292 294 291 285 276 274 276 274 268 264 265 269 274 278 278 274 272 275 274 271 274 274 266 261 272 282 281 285 290 285 272 264 257 251 251 248 243 241 239 237 238 236 234 238 238 232 232 234 229 227 232 233 231 233 236 235 235 233 230 229 229 231 232 232 232 232 232 232 232 232 233 234 236 238 240 240 241 242 243 245 248 250 251 249
294 300 302 299 294 288 285 283 281 278 273 273 274 276 280 279 276 273 271 271 270 275 276 268 264 269 279 284 294 297 284 283 286 275 256 246 248 247 241 241 241 243 246 240 246 256 245 235 235 232 230 234 234 231 232 236 237 237 236 233 231 230 230 231 232 232 232 232 233 233 233 233 234 235 237 238 240 240 241 243 246 250 252 252 250
298 297 293 292 293 292 291 289 289 288 285 286 281 279 281 277 274 272 268 267 267 269 273 275 272 266 263 268 284 288 276 309 318 308 285 262 252 250 247 248 246 246 248 243 249 266 260 244 241 245 245 239 232 229 230 234 236 237 237 236 233 231 230 231 231 232 232 233 233 234 234 234 235 235 236 237 239 240 241 244 247 250 251 250 248
296 293 290 288 288 288 288 291 294 293 292 296 289 281 280 277 276 273 265 262 261 261 270 280 281 276 273 264 257 258 270 305 312 303 299 289 274 261 250 250 251 251 253 248 248 256 256 253 250 247 247 240 234 232 232 232 232 233 235 235 234 233 232 231 231 231 232 232 233 234 234 234 235 235 236 237 238 240 241 244 246 248 248 247 246
291 291 293 291 292 292 293 298 303 304 304 306 297 285 282 283 283 275 265 261 258 258 273 285 287 286 283 272 263 264 270 283 280 279 299 290 281 277 264 260 261 258 257 252 248 250 255 262 259 247 246 245 242 237 232 231 232 231 232 234 235 235 235 234 232 232 232 231 233 234 233 234 234 235 236 237 238 239 241 242 243 244 244 245 245
282 285 291 294 298 302 305 306 309 310 311 314 308 297 293 293 290 283 274 269 262 260 272 283 285 287 288 287 284 279 275 272 268 271 286 288 285 283 278 274 262 250 257 261 256 255 261 269 268 258 250 250 253 248 237 232 231 231 233 235 236 236 237 236 235 234 233 232 232 233 233 233 234 235 236 237 238 238 240 241 240 239 240 241 243
286 288 294 302 305 308 313 314 313 312 316 317 314 312 313 310 304 299 288 282 280 272 270 275 279 288 296 300 302 295 282 276 272 270 270 278 290 290 289 288 270 257 269 275 269 264 266 272 271 262 256 256 259 258 247 237 231 229 233 235 234 233 236 237 238 237 235 234 233 233 233 234 235 236 237 237 237 238 238 239 239 238 238 239 241
287 291 297 301 303 310 316 318 319 319 321 320 318 321 326 326 319 315 306 297 294 282 274 282 288 295 305 305 300 297 290 284 279 274 271 272 281 290 299 300 288 281 282 280 277 278 277 277 273 265 261 260 256 256 254 244 233 227 229 233 232 231 236 239 238 239 238 236 234 233 233 234 235 236 237 238 237 237 237 237 238 238 239 240 242
281 286 290 294 304 315 316 317 321 322 323 324 326 326 323 323 320 316 310 302 299 289 284 295 302 303 308 306 297 294 287 279 282 284 277 268 280 292 295 295 292 289 287 283 280 282 280 276 273 267 265 262 257 255 254 249 242 234 230 231 232 231 235 238 237 238 240 239 236 234 234 234 234 235 236 238 239 238 236 236 237 238 240 241 243
286 290 296 311 321 322 319 317 320 321 320 319 320 321 318 318 317 314 309 307 309 305 298 308 315 313 313 309 301 300 294 287 290 291 282 271 272 276 282 289 291 287 287 287 284 282 278 272 270 269 268 266 261 260 257 250 248 247 238 233 233 233 233 236 237 238 240 241 240 237 236 235 234 235 235 237 239 239 237 236 236 238 240 242 244
299 310 322 326 324 322 319 318 318 317 316 314 312 312 311 311 313 312 312 313 315 314 312 320 325 323 322 314 305 306 307 307 308 308 306 299 288 279 278 280 280 284 288 288 286 284 280 277 275 272 270 269 265 263 260 251 247 253 251 243 240 238 234 235 237 238 238 241 242 240 238 237 235 235 235 235 237 238 238 237 237 238 240 242 244
306 322 323 317 316 317 315 314 314 314 312 311 309 309 310 311 311 310 309 310 312 317 323 326 328 327 326 321 315 315 317 320 321 321 323 317 303 296 295 288 278 280 284 284 284 282 279 279 278 274 274 275 269 260 256 253 248 249 252 249 250 247 239 236 237 238 238 239 241 241 240 240 239 238 237 236 236 237 238 238 238 239 240 241 242
304 309 306 305 310 312 313 312 311 310 310 310 309 309 310 309 308 307 307 309 314 323 331 331 327 323 322 322 324 325 327 328 327 324 320 313 302 298 296 293 286 282 278 277 276 270 269 276 277 274 277 280 274 261 253 251 247 247 249 249 257 260 252 244 243 243 240 238 239 240 240 240 240 241 240 238 237 237 238 238 238 239 240 241 241
290 293 293 299 305 307 308 307 305 305 305 305 305 305 307 308 308 306 305 309 317 325 331 328 321 319 323 328 333 335 334 331 327 323 316 309 307 303 294 280 280 289 287 278 270 262 265 271 274 274 274 276 275 267 259 255 254 255 253 249 254 260 256 248 247 248 244 242 241 239 239 240 240 241 242 241 240 239 238 239 239 239 240 241 242
283 288 291 296 300 301 302 300 301 301 298 299 300 300 303 305 305 303 301 301 307 313 315 316 317 323 327 329 335 338 334 327 323 322 319 316 315 311 302 286 272 273 288 284 272 266 267 267 268 271 271 273 275 273 268 267 266 261 251 244 246 252 254 250 249 251 247 245 246 241 239 239 239 240 242 242 242 240 239 239 240 240 241 242 243
289 290 292 295 296 297 297 296 299 297 293 292 291 291 292 295 298 298 294 291 293 301 309 314 319 323 324 327 331 329 326 325 324 326 328 326 322 318 315 304 286 269 270 281 277 272 271 266 264 264 268 275 278 276 275 275 272 263 250 243 242 247 255 255 252 252 249 247 247 245 242 239 237 240 243 244 244 243 241 240 240 241 242 243 244
283 285 290 293 294 295 294 293 294 295 294 291 286 284 284 285 290 290 287 286 289 296 307 313 315 317 322 330 329 325 324 326 329 333 332 329 327 323 321 318 307 289 277 273 274 276 273 268 268 268 267 272 275 274 276 277 275 268 256 248 245 249 255 256 250 250 249 245 244 245 245 242 239 240 243 244 245 245 244 242 241 241 242 243 244
272 276 283 286 288 289 290 290 289 290 293 293 290 289 287 285 287 286 282 284 291 297 300 303 310 319 325 328 324 323 329 332 334 336 332 327 326 325 324 321 317 309 295 282 274 276 275 270 270 271 270 269 268 268 269 271 271 267 258 250 246 245 250 252 249 247 245 241 238 240 243 244 242 242 242 243 245 245 245 243 242 241 241 241 242
266 271 274 276 280 283 284 285 286 289 292 295 296 294 290 284 281 284 284 283 290 295 294 293 306 318 318 321 324 326 332 336 335 333 329 326 323 321 324 322 316 316 311 299 290 284 279 274 268 270 269 264 260 260 260 260 261 259 252 248 246 242 244 249 249 247 245 241 237 238 241 244 245 243 241 242 243 244 244 243 242 240 239 239 240
264 265 268 273 278 281 283 284 285 287 290 293 296 294 292 288 282 280 281 282 287 290 288 291 299 307 308 314 322 326 331 334 331 328 325 322 320 317 321 324 319 318 319 313 304 295 286 281 274 272 269 259 251 251 251 252 253 253 249 246 243 241 243 249 252 252 249 243 239 236 238 242 245 243 241 241 241 242 242 242 240 239 237 237 238
265 270 273 275 275 276 281 284 284 286 287 286 289 290 289 293 291 284 282 283 284 284 285 290 292 293 300 307 312 316 322 324 323 326 325 319 318 318 319 322 322 319 320 319 313 306 297 287 278 273 269 257 248 246 246 248 249 249 248 246 243 244 248 251 254 254 248 243 239 236 236 240 243 242 240 240 240 238 239 240 238 237 236 236 236
273 278 276 269 270 275 278 280 281 286 288 286 289 289 282 284 289 287 286 285 284 284 284 284 283 285 287 290 297 300 302 309 317 325 328 323 320 318 318 321 324 323 323 321 318 315 308 295 282 273 268 260 254 249 245 245 244 243 245 246 244 247 250 248 248 247 243 241 239 236 236 238 238 238 238 240 238 236 237 238 236 236 236 235 236
270 272 275 274 279 282 280 281 283 286 288 289 292 290 282 281 285 287 289 286 280 281 281 280 280 283 280 277 285 290 292 299 311 322 327 325 323 325 326 326 328 328 327 323 318 316 313 304 292 279 269 261 257 253 246 241 238 237 241 243 241 247 250 244 241 241 239 238 237 236 237 235 233 234 237 238 236 235 236 236 235 235 235 235 235
273 273 280 280 278 280 282 286 286 286 290 292 290 286 280 279 282 285 288 287 281 278 279 281 279 278 276 271 274 280 286 292 301 313 322 323 324 332 335 332 332 333 330 325 319 316 314 309 300 285 270 261 259 257 250 241 233 227 228 233 238 248 251 240 235 235 235 236 235 233 236 235 231 232 235 235 235 235 235 236 236 236 236 236 235
282 279 279 278 278 285 288 289 290 291 294 295 290 283 277 278 281 280 281 285 284 280 281 281 275 272 275 270 267 272 274 282 293 304 315 318 320 329 334 333 332 332 329 325 320 316 314 311 306 292 274 264 263 261 255 246 234 226 224 222 228 240 242 234 230 230 233 238 238 235 235 234 230 230 232 233 235 235 235 236 236 236 236 236 234
274 277 279 281 288 294 294 292 291 289 289 290 288 283 283 291 293 289 287 284 275 273 279 281 274 275 277 269 263 264 261 269 288 300 307 310 310 314 323 328 329 327 325 323 319 315 311 308 306 301 287 274 267 264 259 247 229 222 222 216 215 225 229 228 228 228 229 233 236 235 236 234 229 228 231 233 234 233 233 234 235 235 234 233 231
266 273 277 282 288 291 289 287 286 287 295 308 311 305 308 318 312 296 287 277 268 272 282 283 278 278 276 269 263 259 258 267 287 297 299 304 302 299 308 320 323 321 319 318 315 312 308 306 304 304 299 285 272 270 265 249 227 216 218 217 217 225 227 225 225 226 226 228 228 228 231 230 225 225 230 232 231 229 229 231 232 232 231 229 228
260 269 273 276 281 285 286 288 290 296 315 337 332 321 319 326 321 298 285 283 284 289 293 289 284 280 275 270 264 260 259 264 278 288 291 297 296 290 300 315 317 314 312 310 310 308 304 301 300 299 297 289 280 274 268 261 249 230 220 216 216 224 232 232 227 224 222 222 222 222 224 226 223 223 228 230 228 226 227 229 231 231 229 227 227
261 269 271 269 271 279 287 292 292 293 298 303 309 315 308 302 302 300 299 299 296 296 298 297 293 288 283 277 270 268 268 267 275 286 292 297 295 288 301 315 315 312 308 304 303 303 301 297 295 293 289 288 286 280 271 266 259 243 226 219 214 213 221 233 233 225 219 216 216 219 222 224 222 220 222 226 225 224 226 228 230 231 229 228 227
261 265 267 265 266 271 277 277 276 284 298 298 293 296 301 294 288 297 306 305 300 298 300 303 302 298 294 289 287 294 291 284 286 291 293 298 297 294 309 319 319 316 315 310 303 299 297 293 289 288 285 282 283 282 275 269 263 254 235 223 222 217 213 221 226 220 217 213 210 212 218 220 219 217 218 222 224 223 225 227 228 229 228 227 227
264 262 261 260 261 268 271 269 271 285 298 299 290 291 298 296 294 303 307 306 303 299 297 303 307 304 299 296 298 298 289 283 287 290 290 296 300 304 318 324 321 320 322 320 313 305 298 291 284 283 282 279 278 278 276 273 271 267 247 227 227 222 213 222 225 217 215 215 208 207 215 215 213 214 216 219 222 224 226 228 228 228 227 225 224
263 260 257 255 261 271 271 269 276 286 292 293 291 295 301 305 306 307 305 302 298 294 295 302 305 304 307 305 297 294 289 284 288 290 289 294 300 308 320 324 320 320 323 321 317 311 305 295 285 282 280 276 273 274 274 272 268 269 263 246 237 229 220 226 230 221 216 215 209 208 220 215 209 210 214 216 218 221 225 228 227 227 228 225 222
267 265 261 258 264 270 268 269 279 288 289 285 286 292 303 314 315 309 301 295 291 290 295 302 303 307 318 315 300 293 297 294 295 294 287 293 304 311 318 321 319 320 320 319 317 315 310 301 291 284 280 274 269 268 269 266 263 264 263 258 256 248 230 223 224 220 206 199 201 205 234 227 210 207 213 215 214 217 223 226 225 225 226 225 223
271 269 264 259 263 267 269 271 271 272 278 281 282 286 297 313 317 310 298 289 286 288 293 301 307 313 319 314 297 291 305 305 301 297 291 301 314 316 314 317 319 319 320 322 322 319 313 306 297 289 282 273 265 260 258 257 259 263 264 261 259 251 231 218 214 208 196 182 187 200 225 232 212 207 215 217 214 215 220 222 222 222 222 222 222
264 262 259 261 266 268 276 282 266 253 268 279 276 275 288 311 316 308 299 290 283 287 295 301 310 317 318 312 294 289 308 314 306 306 310 316 320 318 315 316 317 318 323 329 329 325 319 313 307 302 290 275 263 256 252 251 251 254 259 259 250 234 218 207 205 206 203 195 192 200 217 229 215 210 215 216 215 218 220 220 220 221 220 221 222
255 258 260 270 278 273 277 289 282 272 278 279 271 270 285 306 312 304 301 292 278 285 299 302 305 312 320 324 311 301 316 323 313 316 321 321 322 324 322 318 315 320 328 333 332 330 327 324 323 321 309 283 260 252 248 244 243 243 243 244 243 235 216 196 199 212 214 217 215 214 219 225 218 212 210 209 221 230 226 217 214 215 217 218 220
250 258 262 271 280 273 265 279 288 290 291 285 281 284 290 301 306 300 297 290 281 289 296 293 295 303 316 331 332 321 323 317 308 313 318 320 330 336 330 321 318 326 334 334 332 329 328 329 330 332 328 300 260 249 247 241 235 234 235 234 235 235 223 199 198 205 212 228 228 222 216 216 217 217 209 195 215 238 230 215 210 210 210 211 213